When you browse on this site, cookies collect data to enhance your experience and personalize the content and advertising you see.
Visit our Privacy Policy to learn more. By continuing to use the site, you agree to this use of cookies and data.

Hourly Weather Eisenstadt

Today, 15 August, Saturday

Time Temperature Precipitation Wind Pressure Humidity
00:00 +19°C° 0 mm 2 mps 721 mmHg 84%
01:00 +19°C° 0 mm 2 mps 721 mmHg 83%
02:00 +20°C° 0.1 mm 1 mps 721 mmHg 82%
03:00 +20°C° 0.1 mm 1 mps 721 mmHg 82%
04:00 +20°C° 0.1 mm 1 mps 721 mmHg 81%
05:00 +20°C° 0.1 mm 1 mps 721 mmHg 82%
06:00 +20°C° 0.1 mm 1 mps 721 mmHg 82%
07:00 +20°C° 0.1 mm 1 mps 721 mmHg 83%
08:00 +21°C° 0.1 mm 1 mps 721 mmHg 79%
09:00 +22°C° 0.1 mm 1 mps 722 mmHg 76%
10:00 +23°C° 0.1 mm 1 mps 722 mmHg 73%
11:00 +25°C° 0.5 mm 1 mps 721 mmHg 69%
12:00 +26°C° 0.5 mm 1 mps 721 mmHg 65%
13:00 +27°C° 0.5 mm 1 mps 721 mmHg 62%
14:00 +27°C° 0.8 mm 1 mps 721 mmHg 62%
15:00 +27°C° 0.8 mm 1 mps 720 mmHg 63%
16:00 +27°C° 0.8 mm 1 mps 720 mmHg 63%
17:00 +25°C° 0.3 mm 1 mps 720 mmHg 68%
18:00 +24°C° 0.3 mm 1 mps 720 mmHg 72%
19:00 +22°C° 0.3 mm 1 mps 720 mmHg 76%
20:00 +22°C° 0.1 mm 1 mps 720 mmHg 78%
21:00 +21°C° 0.1 mm 1 mps 720 mmHg 80%
22:00 +20°C° 0.1 mm 1 mps 720 mmHg 82%
23:00 +20°C° 0.2 mm 1 mps 720 mmHg 83%

Tomorrow, 16 August, Sunday

Time Temperature Precipitation Wind Pressure Humidity
00:00 +20°C° 0.2 mm 1 mps 720 mmHg 85%
01:00 +19°C° 0.2 mm 1 mps 720 mmHg 86%
02:00 +19°C° 0.4 mm 1 mps 720 mmHg 87%
03:00 +19°C° 0.4 mm 1 mps 720 mmHg 88%
04:00 +19°C° 0.4 mm 1 mps 720 mmHg 88%
05:00 +19°C° 0.5 mm 1 mps 720 mmHg 89%
06:00 +20°C° 0.5 mm 1 mps 720 mmHg 89%
07:00 +20°C° 0.5 mm 1 mps 721 mmHg 89%
08:00 +22°C° 0.5 mm 1 mps 721 mmHg 86%
09:00 +23°C° 0.5 mm 1 mps 721 mmHg 83%
10:00 +24°C° 0.5 mm 1 mps 721 mmHg 80%
11:00 +24°C° 1.2 mm 1 mps 721 mmHg 78%
12:00 +25°C° 1.2 mm 1 mps 721 mmHg 75%
13:00 +26°C° 1.2 mm 1 mps 721 mmHg 72%
14:00 +26°C° 1 mm 1 mps 721 mmHg 71%
15:00 +26°C° 1 mm 1 mps 720 mmHg 71%
16:00 +26°C° 1 mm 1 mps 720 mmHg 70%
17:00 +25°C° 0.2 mm 1 mps 720 mmHg 74%
18:00 +23°C° 0.2 mm 1 mps 720 mmHg 79%
19:00 +22°C° 0.2 mm 1 mps 720 mmHg 83%
20:00 +21°C° 0.1 mm 1 mps 720 mmHg 85%
21:00 +21°C° 0.1 mm 1 mps 720 mmHg 87%
22:00 +20°C° 0.1 mm 1 mps 720 mmHg 89%
23:00 +20°C° 0 mm 1 mps 720 mmHg 90%

Day after tomorrow, 17 August, Monday

Time Temperature Precipitation Wind Pressure Humidity
00:00 +20°C° 0 mm 1 mps 720 mmHg 90%
01:00 +20°C° 0 mm 1 mps 720 mmHg 91%
02:00 +20°C° 0 mm 1 mps 720 mmHg 91%
03:00 +19°C° 0 mm 1 mps 719 mmHg 91%
04:00 +19°C° 0 mm 1 mps 719 mmHg 92%
05:00 +20°C° 0.1 mm 1 mps 719 mmHg 90%
06:00 +21°C° 0.1 mm 1 mps 719 mmHg 88%
07:00 +22°C° 0.1 mm 1 mps 719 mmHg 87%
08:00 +23°C° 0 mm 2 mps 720 mmHg 79%
09:00 +25°C° 0 mm 3 mps 720 mmHg 72%
10:00 +27°C° 0 mm 3 mps 720 mmHg 65%
11:00 +27°C° 0.1 mm 4 mps 719 mmHg 62%
12:00 +28°C° 0.1 mm 4 mps 719 mmHg 59%
13:00 +29°C° 0.1 mm 5 mps 719 mmHg 56%
14:00 +29°C° 0.3 mm 4 mps 718 mmHg 58%
15:00 +28°C° 0.3 mm 4 mps 718 mmHg 61%
16:00 +28°C° 0.3 mm 3 mps 717 mmHg 63%
17:00 +27°C° 0.1 mm 3 mps 717 mmHg 68%
18:00 +25°C° 0.1 mm 2 mps 717 mmHg 73%
19:00 +24°C° 0.1 mm 1 mps 717 mmHg 78%
20:00 +23°C° 0.2 mm 1 mps 718 mmHg 80%
21:00 +21°C° 0.2 mm 2 mps 718 mmHg 82%
22:00 +20°C° 0.2 mm 2 mps 718 mmHg 83%
23:00 +20°C° 0.1 mm 3 mps 718 mmHg 84%

18 August, Tuesday

Time Temperature Precipitation Wind Pressure Humidity
00:00 +19°C° 0.1 mm 3 mps 719 mmHg 85%
01:00 +19°C° 0.1 mm 4 mps 719 mmHg 86%
02:00 +19°C° 0 mm 3 mps 719 mmHg 84%
03:00 +19°C° 0 mm 3 mps 719 mmHg 83%
04:00 +19°C° 0 mm 3 mps 719 mmHg 82%
05:00 +19°C° 0.1 mm 2 mps 719 mmHg 81%
06:00 +19°C° 0.1 mm 2 mps 720 mmHg 81%
07:00 +20°C° 0.1 mm 1 mps 720 mmHg 81%
08:00 +21°C° 0 mm 1 mps 720 mmHg 77%
09:00 +22°C° 0 mm 1 mps 720 mmHg 73%
10:00 +23°C° 0 mm 1 mps 720 mmHg 68%
11:00 +24°C° 0 mm 1 mps 720 mmHg 63%
12:00 +26°C° 0 mm 1 mps 720 mmHg 58%
13:00 +27°C° 0 mm 1 mps 720 mmHg 52%
14:00 +26°C° 0.5 mm 2 mps 719 mmHg 58%
15:00 +26°C° 0.5 mm 2 mps 719 mmHg 65%
16:00 +25°C° 0.5 mm 2 mps 719 mmHg 71%
17:00 +24°C° 1 mm 1 mps 718 mmHg 74%
18:00 +23°C° 1 mm 1 mps 718 mmHg 77%
19:00 +22°C° 1 mm 1 mps 718 mmHg 81%
20:00 +21°C° 1.5 mm 1 mps 718 mmHg 84%
21:00 +20°C° 1.5 mm 1 mps 718 mmHg 87%
22:00 +19°C° 1.5 mm 1 mps 719 mmHg 91%
23:00 +19°C° 0.7 mm 1 mps 719 mmHg 91%

19 August, Wednesday

Time Temperature Precipitation Wind Pressure Humidity
00:00 +19°C° 0.7 mm 1 mps 719 mmHg 92%
01:00 +18°C° 0.7 mm 2 mps 719 mmHg 93%
02:00 +19°C° 0.3 mm 1 mps 718 mmHg 92%
03:00 +19°C° 0.3 mm 1 mps 718 mmHg 91%
04:00 +19°C° 0.3 mm 1 mps 718 mmHg 90%
05:00 +19°C° 0.2 mm 1 mps 718 mmHg 89%
06:00 +19°C° 0.2 mm 1 mps 718 mmHg 88%
07:00 +19°C° 0.2 mm 1 mps 718 mmHg 86%
08:00 +20°C° 0.2 mm 1 mps 719 mmHg 85%
09:00 +20°C° 0.2 mm 1 mps 719 mmHg 83%
10:00 +20°C° 0.2 mm 1 mps 719 mmHg 82%
11:00 +21°C° 0.2 mm 1 mps 719 mmHg 80%
12:00 +22°C° 0.2 mm 1 mps 719 mmHg 77%
13:00 +22°C° 0.2 mm 1 mps 719 mmHg 75%
14:00 +23°C° 0.1 mm 1 mps 718 mmHg 71%
15:00 +24°C° 0.1 mm 1 mps 718 mmHg 67%
16:00 +24°C° 0.1 mm 1 mps 718 mmHg 63%
17:00 +23°C° 0.1 mm 1 mps 718 mmHg 68%
18:00 +22°C° 0.1 mm 1 mps 718 mmHg 73%
19:00 +20°C° 0.1 mm 1 mps 718 mmHg 78%
20:00 +19°C° 0 mm 2 mps 718 mmHg 79%
21:00 +18°C° 0 mm 2 mps 719 mmHg 80%
22:00 +18°C° 0 mm 2 mps 719 mmHg 81%
23:00 +18°C° 0 mm 3 mps 719 mmHg 81%

20 August, Thursday

Time Temperature Precipitation Wind Pressure Humidity
00:00 +17°C° 0 mm 3 mps 719 mmHg 81%
01:00 +17°C° 0 mm 3 mps 719 mmHg 81%
02:00 +17°C° 0 mm 3 mps 720 mmHg 82%
03:00 +17°C° 0 mm 3 mps 720 mmHg 83%
04:00 +17°C° 0 mm 2 mps 720 mmHg 84%
05:00 +18°C° 0 mm 3 mps 720 mmHg 81%
06:00 +18°C° 0 mm 3 mps 720 mmHg 79%
07:00 +19°C° 0 mm 3 mps 720 mmHg 76%
08:00 +21°C° 0 mm 3 mps 721 mmHg 69%
09:00 +24°C° 0 mm 3 mps 721 mmHg 62%
10:00 +25°C° 0 mm 3 mps 722 mmHg 55%
11:00 +26°C° 0 mm 3 mps 722 mmHg 53%
12:00 +26°C° 0 mm 3 mps 721 mmHg 51%
13:00 +27°C° 0 mm 3 mps 721 mmHg 50%
14:00 +27°C° 0 mm 3 mps 721 mmHg 51%
15:00 +27°C° 0 mm 2 mps 721 mmHg 51%
16:00 +27°C° 0 mm 2 mps 721 mmHg 52%
17:00 +25°C° 0 mm 2 mps 721 mmHg 59%
18:00 +23°C° 0 mm 2 mps 721 mmHg 66%
19:00 +21°C° 0 mm 1 mps 721 mmHg 72%
20:00 +21°C° 0 mm 1 mps 721 mmHg 74%
21:00 +20°C° 0 mm 1 mps 722 mmHg 75%
22:00 +19°C° 0 mm 1 mps 722 mmHg 76%
23:00 +19°C° 0 mm 1 mps 722 mmHg 76%
Show more